Glendale Luke AFB, AZ

6:41 AM MST on December 08, 2019 (GMT -0700)
Luke Air Force Base

Weather History for KLUF - October, 2019

Change the Weather History Date:

Tuesday, October 1, 2019

  Actual Average Record
Temperature  
Mean Temperature 72 °F -  
Max Temperature 86 °F 96 °F 108 °F (1980)
Min Temperature 58 °F 60 °F 46 °F (1927)
Cooling Degree Days 7    
Growing Degree Days 22 (Base 50)    
Moisture  
Dew Point 36 °F    
Average Humidity 30    
Maximum Humidity 64    
Minimum Humidity 11    
Precipitation  
Precipitation 0.00 in - - ()
Sea Level Pressure  
Sea Level Pressure 29.75 in    
Wind  
Wind Speed 5 mph (NW)    
Max Wind Speed 7 mph    
Max Gust Speed -    
Visibility 10 miles    
Events      
Averages and records for this station are not official NWS values.
T = Trace of Precipitation, MM = Missing Value Source: NWS Daily Summary

Daily Weather History Graph

Daily Weather History Graph

Search for Another Location

Airport or City:

Astronomy

Oct. 01, 2019 Rise Set
Actual Time 6:23 AM MST 6:14 PM MST
Civil Twilight 5:58 AM MST 6:38 PM MST
Nautical Twilight 5:30 AM MST 7:07 PM MST
Astronomical Twilight 5:01 AM MST 7:36 PM MST
Moon 9:35 AM MST (10/1) 8:39 PM MST (10/1)
Length of Visible Light 12h 39m
Length of Day
11h 50m
Waxing Crescent, 13% of the Moon is Illuminated
Oct 1
Waxing Crescent
Oct 5
First Quarter
Oct 13
Full
Oct 21
Last Quarter
Oct 27
New

Hourly Weather History & Observations

Time (MST) Temp. Dew Point Humidity Pressure Visibility Wind Dir Wind Speed Gust Speed Precip Events Conditions
12:58 AM 71.8 °F 28.6 °F 20% 29.69 in 10.0 mi South 5.8 mph - N/A   Clear
1:58 AM 69.4 °F 30.0 °F 23% 29.70 in 10.0 mi South 5.8 mph - N/A   Clear
2:58 AM 67.6 °F 34.2 °F 29% 29.70 in 10.0 mi NW 5.8 mph - N/A   Clear
3:58 AM 60.4 °F 45.1 °F 57% 29.70 in 10.0 mi Calm Calm - N/A   Clear
4:58 AM 59.2 °F 45.3 °F 60% 29.70 in 10.0 mi NNW 6.9 mph - N/A   Clear
5:58 AM 58.3 °F 46.2 °F 64% 29.73 in 10.0 mi ENE 5.8 mph - N/A   Clear
6:58 AM 60.3 °F 46.4 °F 60% 29.75 in 10.0 mi North 4.6 mph - N/A   Clear
7:58 AM 65.8 °F 46.8 °F 50% 29.78 in 10.0 mi NNE 4.6 mph - N/A   Clear
8:58 AM 71.8 °F 41.9 °F 34% 29.78 in 10.0 mi ENE 3.5 mph - N/A   Clear
9:58 AM 77.2 °F 36.5 °F 23% 29.80 in 10.0 mi Calm Calm - N/A   Clear
10:58 AM 79.0 °F 35.8 °F 21% 29.79 in 10.0 mi Calm Calm - N/A   Clear
11:58 AM 82.8 °F 27.0 °F 13% 29.79 in 10.0 mi SSW 3.5 mph - N/A   Clear
12:58 PM 83.7 °F 25.7 °F 12% 29.77 in 10.0 mi SSE 6.9 mph - N/A   Clear
1:58 PM 85.5 °F 27.0 °F 12% 29.75 in 10.0 mi NW 4.6 mph - N/A   Clear
2:58 PM 86.9 °F 26.1 °F 11% 29.73 in 10.0 mi WSW 5.8 mph - N/A   Clear
3:58 PM 86.5 °F 25.7 °F 11% 29.73 in 10.0 mi West 5.8 mph - N/A   Clear
4:58 PM 86.2 °F 29.5 °F 13% 29.73 in 10.0 mi West 3.5 mph - N/A   Clear
5:58 PM 85.5 °F 32.5 °F 15% 29.73 in 10.0 mi West 3.5 mph - N/A   Clear
6:58 PM 80.6 °F 38.3 °F 22% 29.73 in 10.0 mi NW 3.5 mph - N/A   Clear
7:58 PM 76.6 °F 42.8 °F 30% 29.75 in 10.0 mi NNW 6.9 mph - N/A   Clear
8:58 PM 74.5 °F 40.1 °F 29% 29.76 in 10.0 mi NW 4.6 mph - N/A   Clear
9:58 PM 70.3 °F 43.5 °F 38% 29.78 in 10.0 mi North 5.8 mph - N/A   Clear
10:58 PM 71.1 °F 38.1 °F 30% 29.79 in 10.0 mi NNW 3.5 mph - N/A   Clear
11:58 PM 68.9 °F 41.5 °F 37% 29.80 in 10.0 mi Calm Calm - N/A   Clear